This demonstration page uses our WeatherBlox Daily Observations layout. Learn more.

Left ArrowRight Arrow

Hourly Observations for August 26, 2021

Temp ( °F °C ) Dew Point ( °F °C ) Humidity (%) Winds ( mph kmh ) Pressure ( in mb ) Visibility ( mi km ) Precip ( " mm )
12:53 am 00:53 Clear with Smoke 69 20.6 47 8.3 45 45 Calm 29.93 1014 9 14 0.00 0.00
1:53 am 01:53 Clear with Smoke 66 18.9 47 8.3 50 50 Calm 29.93 1014 10 16 0.00 0.00
2:53 am 02:53 Partly Cloudy with Smoke 65 18.3 45 7.2 49 49 Calm 29.94 1014 10 16 0.00 0.00
3:34 am 03:34 Cloudy with Smoke 64 17.8 46 7.8 52 52 Calm 29.95 1014 10 16 0.00 0.00
3:53 am 03:53 Cloudy with Smoke 62 16.7 46 7.8 56 56 Calm 29.93 1014 10 16 0.00 0.00
4:41 am 04:41 Cloudy with Smoke 64 17.8 46 7.8 52 52 N 5 7 29.95 1014 10 16 0.00 0.00
4:53 am 04:53 Mostly Cloudy with Smoke 64 17.8 45 7.2 50 50 Calm 29.94 1014 10 16 0.00 0.00
5:53 am 05:53 Clear with Smoke 62 16.7 45 7.2 54 54 Calm 29.94 1014 10 16 0.00 0.00
6:53 am 06:53 Sunny with Smoke 61 16.1 45 7.2 56 56 Calm 29.96 1015 9 14 0.00 0.00
7:53 am 07:53 Sunny with Smoke 66 18.9 47 8.3 50 50 Calm 29.97 1015 7 11 0.00 0.00
8:53 am 08:53 Sunny with Smoke 74 23.3 45 7.2 36 36 NNE 3 6 29.96 1015 8 13 0.00 0.00
9:53 am 09:53 Hazy 81 27.2 44 6.7 27 27 VRB 7 11 29.95 1014 6 10 0.00 0.00
10:53 am 10:53 Hazy 87 30.6 41 5 20 20 N 6 9 29.94 1014 6 10 0.00 0.00
11:53 am 11:53 Hazy 89 31.7 40 4.4 18 18 NNE 5 7 29.92 1013 6 10 0.00 0.00
12:53 pm 12:53 Hazy 92 33.3 39 3.9 16 16 Calm 29.90 1013 5 8 0.00 0.00
1:53 pm 13:53 Mostly Cloudy with Haze 94 34.4 36 2.2 13 13 Calm 29.88 1012 5 8 0.00 0.00
2:53 pm 14:53 Sunny with Smoke 96 35.6 33 0.6 11 11 NNW 7 11 29.85 1011 7 11 0.00 0.00
3:53 pm 15:53 Hazy 97 36.1 35 1.7 11 11 N 7 11 29.82 1010 6 10 0.00 0.00
4:53 pm 16:53 Cloudy with Haze 97 36.1 35 1.7 11 11 W 3 6 29.80 1009 3 5 0.00 0.00
5:22 pm 17:22 Cloudy with Haze 97 36.1 36 2.2 12 12 N 3 6 29.78 1008 3 4 0.00 0.00
5:53 pm 17:53 Cloudy with Haze 97 36.1 36 2.2 12 12 W 3 6 29.79 1009 3 4 0.00 0.00
6:53 pm 18:53 Cloudy with Haze 94 34.4 40 4.4 15 15 NNW 3 6 29.78 1009 1 2 0.00 0.00
7:53 pm 19:53 Cloudy with Haze 88 31.1 42 5.6 20 20 Calm 29.78 1009 1 2 0.00 0.00
8:10 pm 20:10 Cloudy with Haze 87 30.6 42 5.6 21 21 Calm 29.77 1008 2 3 0.00 0.00
8:37 pm 20:37 Cloudy with Haze 86 30 43 6.1 22 22 WNW 3 6 29.78 1008 2 3 0.00 0.00
8:53 pm 20:53 Cloudy with Haze 85 29.4 42 5.6 22 22 NW 5 7 29.79 1009 2 3 0.00 0.00
9:53 pm 21:53 Cloudy with Haze 79 26.1 46 7.8 31 31 SSW 5 7 29.80 1009 2 3 0.00 0.00
10:53 pm 22:53 Cloudy with Haze 78 25.6 44 6.7 30 30 N 5 7 29.80 1009 2 3 0.00 0.00
11:53 pm 23:53 Cloudy with Haze 76 24.4 43 6.1 31 31 N 6 9 29.80 1009 3 4 0.00 0.00

Powered by AerisWeather